sim
Sign-in with your pilot id or email,
or register
Callsign
Passwort

Schedule Details

Flight Number: RYR3525 (1)
Departure: London Luton Airport (EGGW) at 07:05
Arrival: Fuerteventura Airport (GCFV) at 11:25
Route: Ryanair Passenger Schedule. Enter filed route here before submitting Pirep.

Weather Information
Getting current METAR information for EGGW 222250Z AUTO 22004KT 9999 NCD 19/16 Q1022
Getting current METAR information for GCFV 222300Z AUTO 36018KT 9999 NCD 21/17 Q1018

Schedule Frequency

Route Map